Overview Statistics Trail Chart Weather Telemetry Raw packets
 

This is the latest recevied weather packets stored in our database for station/object KC5DAQ-26. If no packets are shown the sender has not sent any weather packets the latest 10 day(s).

<< 471 472 473 474 475 476 477 >>
Time Temp. Humidity Pressure Rain* Wind** Luminosity Snow
1787929626 30° C 82% 1020.5 hPa 0 mm - 594 W/m² -
1787929562 29.44° C 82% 1020.6 hPa 0 mm - 571 W/m² -
1787929503 29.44° C 83% 1020.6 hPa 0 mm - 543 W/m² -
1787929444 29.44° C 83% 1020.6 hPa 0 mm - 564 W/m² -
1787929383 29.44° C 83% 1020.6 hPa 0 mm - 549 W/m² -
1787929322 29.44° C 84% 1020.6 hPa 0 mm - 338 W/m² -
1787929263 29.44° C 86% 1020.6 hPa 0 mm - 141 W/m² -
1787929205 29.44° C 87% 1020.6 hPa 0 mm - 118 W/m² -
1787929142 29.44° C 88% 1020.6 hPa 0 mm - 218 W/m² -
1787929082 29.44° C 87% 1020.5 hPa 0 mm - 566 W/m² -
1787929024 28.89° C 87% 1020.6 hPa 0 mm - 559 W/m² -
1787928963 28.89° C 85% 1020.6 hPa 0 mm - 552 W/m² -
1787928902 28.89° C 89% 1020.5 hPa 0 mm - 550 W/m² -
1787928843 28.89° C 88% 1020.5 hPa 0 mm - 545 W/m² -
1787928783 28.89° C 89% 1020.4 hPa 0 mm - 550 W/m² -
1787928723 28.89° C 88% 1020.4 hPa 0 mm - 566 W/m² -
1787928662 28.89° C 86% 1020.5 hPa 0 mm - 563 W/m² -
1787928604 28.89° C 87% 1020.5 hPa 0 mm - 550 W/m² -
1787928543 28.89° C 87% 1020.4 hPa 0 mm - 179 W/m² -
1787928482 28.89° C 85% 1020.5 hPa 0 mm - 199 W/m² -
1787928422 28.89° C 86% 1020.5 hPa 0 mm - 540 W/m² -
1787928363 28.89° C 85% 1020.6 hPa 0 mm - 542 W/m² -
1787928303 28.89° C 84% 1020.5 hPa 0 mm - 478 W/m² -
1787928242 28.89° C 82% 1020.5 hPa 0 mm - 478 W/m² -
1787928184 28.89° C 83% 1020.5 hPa 0 mm - 390 W/m² -

* Rain latest hour (hover to see other rain measurements)
** Current wind speed in m/s (hover to see current wind gust speed)